World > North America > United States > California > Winterhaven

Hourly Winterhaven, CA Regional Weather

Feedback E-mail the Weather

Quick WX

Winterhaven, CA Weather Maps

°F °C°F °C
Winterhaven Weather Map
UTC Time: 8/13/2022, 11:26
Your Time:

Winterhaven, CA Regional Weather

Expires:202208131200;;022632
ASUS45 KPSR 131110
RWRAZ 

ARIZONA HOURLY REGIONAL WEATHER ROUNDUP
NATIONAL WEATHER SERVICE PHOENIX AZ
400 AM MST SAT AUG 13 2022

NOTE: FAIR INDICATES FEW OR NO CLOUDS BELOW 12,000 FEET WITH NO
SIGNIFICANT WEATHER AND/OR OBSTRUCTIONS TO VISIBILITY.


CAZ041-043-047-048-061-525>527-560>570-131200-
SOUTHERN CALIFORNIA
  
CITY           SKY/WX    TMP DP  RH WIND       PRES   REMARKS
DOWNTOWN L.A.  CLEAR     68  61  78 CALM      29.91S                  
L.A. AIRPORT   CLEAR     68  62  81 CALM      29.92S                  
SAN DIEGO      PTCLDY    71  66  84 NW5       29.94S                  
BURBANK        CLEAR     73  57  57 SW3       29.94S                  
ONTARIO        PTCLDY    74  55  51 VRB3      29.94S                  
RIVERSIDE      CLEAR     73  55  53 CALM      29.95R                  
PALM SPRINGS   MOCLDY    84  68  58 CALM      29.95S                  
EL CENTRO NAS  PTCLDY    86  71  60 N10       29.89F                  
IMPERIAL       PTCLDY    85  72  65 NW6       29.87F                  
BLYTHE         CLEAR     85  67  54 SE5       29.91S                  
NEEDLES        MOCLDY    85  67  54 NE3       29.94R                  
$$


SKY/WX - Weather  TMP - Temperature  DP - Dew Point  RH - Humidity
WIND - Wind Direction/Speed PRES - Barometric Pressure VSB - Visibility
WCI - Wind Chill Index E13G22 Wind - East Wind 13 mph/Gusts of 22 mph

Trending Headlines

Winterhaven Radar Loop



Winterhaven Quick Facts


National Two Day Weather Forecast


E-mail the Winterhaven Weather Forecast

Voice your opinion or tell us about page issues...